AKST,Max TemperatureF,Mean TemperatureF,Min TemperatureF,Max Dew PointF,MeanDew PointF,Min DewpointF,Max Humidity, Mean Humidity, Min Humidity, Max Sea Level PressureIn, Mean Sea Level PressureIn, Min Sea Level PressureIn, Max VisibilityMiles, Mean VisibilityMiles, Min VisibilityMiles, Max Wind SpeedMPH, Mean Wind SpeedMPH, Max Gust SpeedMPH,PrecipitationIn, CloudCover, Events, WindDirDegrees
2012-11-1,30,28,26,25,20,16,93,75,64,29.95,29.88,29.76,10,9,2,21,16,30,0.00,6,Snow,304
2012-11-2,28,26,24,25,22,16,93,85,63,29.88,29.66,29.60,10,4,0,20,15,30,0.16,8,Fog-Snow,298
2012-11-3,39,32,26,35,29,25,100,93,81,29.60,29.57,29.52,10,5,1,13,8,24,1.05,8,Rain-Snow,288
2012-11-4,37,35,33,36,34,33,100,93,86,29.60,29.35,29.15,10,9,5,17,9,24,0.63,8,Rain,315
2012-11-5,42,38,33,39,37,32,100,90,81,29.94,29.78,29.37,10,9,5,18,12,32,0.26,8,Rain,81
2012-11-6,39,34,30,37,32,22,100,90,69,29.96,29.87,29.80,10,8,2,20,9,28,0.13,8,Rain-Snow,304
2012-11-7,30,26,23,23,15,11,81,60,47,30.46,30.27,29.98,10,9,4,22,17,30,0.00,4,Snow,301
2012-11-8,25,22,19,12,11,9,71,62,55,30.47,30.45,30.43,10,10,9,20,15,28,0.00,0,,307
2012-11-9,21,18,15,15,11,8,78,71,60,30.43,30.26,30.10,10,10,10,17,13,25,0.00,1,,294
2012-11-10,26,24,21,23,21,15,93,90,75,30.10,29.96,29.83,10,4,1,13,9,,0.06,8,Snow,289
2012-11-11,30,28,25,29,26,23,96,92,86,29.82,29.75,29.73,10,4,1,14,11,,0.02,8,Snow,291
2012-11-12,35,32,30,32,30,28,100,92,81,29.99,29.88,29.78,10,5,1,14,10,20,0.07,8,Rain-Snow,304
2012-11-13,30,29,28,30,27,22,100,87,69,30.01,29.99,29.96,10,6,1,13,9,18,0.05,8,Snow,309
2012-11-14,39,32,26,36,30,25,100,92,86,29.97,29.72,29.48,10,5,1,21,6,38,0.33,8,Rain-Snow,40
2012-11-15,39,36,33,36,35,33,100,91,83,29.68,29.64,29.58,10,10,7,18,12,34,0.10,8,Rain,82
2012-11-16,34,29,24,33,21,11,96,76,57,29.64,29.54,29.49,10,8,2,18,13,29,0.01,7,Snow,300
2012-11-17,24,20,16,13,7,2,71,58,50,29.64,29.47,29.35,10,10,9,20,15,29,0.00,3,,302
2012-11-18,19,16,14,10,7,2,84,65,50,29.57,29.51,29.39,10,10,4,17,11,24,0.00,7,Snow,299
2012-11-19,21,19,17,8,6,3,62,57,50,29.75,29.62,29.53,10,10,10,17,15,24,0.00,6,,312
2012-11-20,19,17,15,7,4,2,59,55,50,29.83,29.79,29.76,10,10,10,18,13,25,0.00,3,,307
2012-11-21,21,18,14,9,4,1,60,52,46,30.08,29.89,29.75,10,10,10,20,15,28,0.00,5,,312
2012-11-22,23,21,19,18,14,8,93,76,55,30.07,29.80,29.64,10,6,0,17,12,23,0.10,7,Fog-Snow,307
2012-11-23,25,23,21,18,16,13,85,72,60,29.81,29.74,29.66,10,8,2,18,14,25,0.00,8,Snow,316
2012-11-24,24,22,21,13,10,8,63,58,53,30.14,29.95,29.83,10,10,10,21,15,28,0.00,5,,314
2012-11-25,25,22,19,18,14,9,81,70,57,30.34,30.23,30.16,10,9,2,17,12,22,0.00,7,Snow,307
2012-11-26,26,22,17,18,15,9,85,72,63,30.38,30.33,30.24,10,10,7,20,15,25,0.00,5,Snow,309
2012-11-27,30,22,14,14,10,8,77,65,42,30.22,30.07,30.00,10,10,10,23,17,32,0.00,0,,300
2012-11-28,27,20,14,10,3,-4,62,47,40,30.11,30.04,29.91,10,10,10,9,6,,0.00,0,,311
2012-11-29,17,16,14,11,5,-6,84,67,38,29.88,29.80,29.75,10,4,1,12,9,,0.04,7,Snow,310
2012-11-30,16,15,14,11,4,-4,84,62,45,29.85,29.80,29.75,10,9,2,14,10,21,0.00,6,Snow,315